Volver al catálogo

COSMOS 2514

GLONASS

ActivoNavegaciónMEO
NORAD 41330·PAYLOAD·🇷🇺 Russia

Lanzado Feb 7, 2016 desde Plesetsk Cosmodrome

Loading…

Próximos Pases (próximas 24 horas)

TLE

ActualizadoSource: CelesTrak SupGP

Época: Sep 13, 2026, 23:59 UTC

1 41330C 16008A   26256.99979167  .00000000  00000+0  00000+0 0  2568
2 41330  64.9639 309.9540 0013681 210.6156 168.1145  2.13102890    13

Sigue COSMOS 2514 en tiempo real con AllMySat

Download on the App Store